Wind_Speed
5 4 4 5 5 7 6 7 7 6 6 6 7 7 5 3 3 3 4 3 4 2 2 2 2 2 3 6 6 7 11 13 13 10 7 9 11 11 10 10 9 7 5 4 4 5 7 7 7 10 12 13 13 12 12 12 12 12 11 11 11 11 11 11 12 14 16 17 17 16 16 16 17 18 18 17 18 15 12 11 10 11 11 11 11
3 3 4 3 3 6 5 5 3 3 5 5 5 4 3 3 3 3 3 3 2 1 1 2 1 2 5 7 7 7 8 10 11 9 7 8 10 11 12 13 12 10 8 7 7 7 7 7 7 7 8 10 12 13 12 11 11 11 11 10 9 10 10 9 10 12 14 15 17 16 15 15 16 18 17 16 17 17 15 13 11 11 12 13 13
5 4 4 3 4 6 6 6 6 5 6 5 3 2 3 3 4 3 2 3 2 1 1 2 3 4 7 9 9 9 9 9 10 9 7 8 10 13 13 14 14 13 11 10 9 9 10 10 10 9 7 7 8 10 11 11 11 10 10 10 9 10 10 9 10 11 12 13 14 15 15 15 15 15 15 15 15 17 18 17 15 14 12 12 14
7 6 7 7 7 8 9 9 9 8 6 3 3 3 5 3 4 4 3 3 3 2 3 4 6 9 10 10 12 12 10 10 11 11 10 8 9 12 13 13 13 14 13 12 11 10 11 11 11 11 10 9 8 9 10 11 12 12 11 10 10 11 11 11 12 12 13 13 14 15 16 16 16 15 13 13 14 15 17 17 16 17 15 13 14
5 6 7 8 7 7 7 7 7 5 4 3 2 6 8 4 5 4 4 4 4 4 5 5 6 9 11 11 12 13 12 10 9 11 13 11 9 10 12 12 12 13 13 12 12 12 11 11 12 12 11 10 10 10 11 13 13 13 13 13 12 12 12 13 13 13 13 14 15 17 17 17 18 16 15 14 13 14 16 16 14 17 18 15 14
5 6 5 6 7 7 6 6 5 4 4 3 2 6 5 2 4 4 4 5 5 5 5 7 9 11 11 12 11 11 12 11 10 9 9 11 11 10 10 10 11 12 12 11 12 13 12 12 13 14 14 12 10 10 11 14 14 14 15 15 15 15 14 15 15 15 15 15 15 16 18 18 18 17 17 15 14 14 15 15 14 14 17 16 15
5 5 4 6 7 7 7 6 4 3 5 4 2 4 0 2 3 3 3 4 5 6 8 9 11 14 12 12 12 11 10 10 12 11 9 9 8 8 8 8 9 10 10 11 13 13 13 14 15 16 17 16 13 12 12 14 15 15 15 16 16 16 16 16 17 17 17 17 16 16 18 18 18 18 18 17 15 14 14 15 15 15 16 16 16
5 5 5 7 6 6 7 6 3 2 3 2 3 3 1 2 3 3 2 3 4 6 11 11 11 12 12 12 11 11 11 10 11 11 10 10 8 7 7 7 8 8 8 9 11 12 13 14 15 16 17 18 15 13 13 14 14 15 16 16 16 16 17 17 17 17 17 17 17 17 18 18 19 19 19 18 17 16 15 15 16 16 17 17 17
5 6 7 6 6 7 7 6 4 2 1 0 2 3 1 3 4 1 3 2 2 6 12 12 12 12 12 12 11 10 11 10 10 9 9 9 9 7 7 7 8 7 7 7 8 9 12 13 14 14 16 18 17 15 15 16 15 15 16 16 17 17 17 18 17 18 17 17 17 17 18 18 18 19 19 19 19 17 16 16 17 17 17 17 18
6 8 9 8 7 7 6 6 4 2 2 3 3 3 3 1 2 0 2 1 5 9 15 13 13 14 13 12 10 9 10 9 8 8 8 8 8 7 6 6 7 7 7 7 7 8 9 12 13 13 14 16 17 17 16 16 15 15 16 17 17 17 18 18 18 18 17 17 17 17 18 18 18 18 19 19 19 19 18 17 18 17 18 18 17
8 9 9 9 8 6 6 5 3 2 3 4 3 2 2 1 1 1 1 1 5 10 14 15 16 15 13 11 9 9 9 9 8 7 8 7 6 6 6 6 6 7 7 7 8 9 9 9 8 9 11 14 15 17 16 16 16 14 15 17 18 17 18 18 18 18 18 18 18 19 19 20 20 19 19 19 19 19 18 18 18 18 18 18 19
9 8 8 7 5 4 4 2 1 3 4 5 2 1 3 2 1 2 2 2 5 9 13 16 17 15 12 10 8 8 7 8 8 7 6 6 5 5 5 5 5 6 6 7 8 10 9 7 5 5 7 10 13 14 14 15 17 16 16 18 19 19 19 19 18 18 18 19 19 20 21 21 21 21 20 20 20 19 19 18 18 18 18 18 19
10 9 9 9 6 4 2 1 2 4 4 5 4 2 3 2 1 1 3 4 6 8 11 13 13 12 10 8 8 8 7 7 6 6 5 4 4 4 5 5 4 4 5 6 6 7 8 8 7 5 5 6 8 9 9 12 17 18 17 18 20 20 20 19 19 19 18 19 19 20 21 22 21 21 21 21 21 21 20 19 19 19 19 19 19
10 10 9 9 8 7 4 4 4 4 4 4 3 2 3 3 3 2 3 5 5 9 11 9 9 11 9 7 7 6 5 5 5 5 4 4 4 4 5 5 4 4 4 4 4 4 5 6 8 8 7 6 6 7 7 10 15 16 16 18 21 22 22 21 20 19 19 19 20 20 21 22 21 21 21 22 22 22 21 20 20 19 19 19 20
8 9 8 6 6 5 4 5 5 4 5 5 4 4 4 3 5 4 5 5 5 8 9 5 6 12 11 6 4 4 3 3 4 4 4 4 4 4 4 4 4 3 3 3 3 3 4 5 6 9 9 8 7 8 7 9 12 13 13 16 20 23 24 24 21 20 19 19 20 21 21 22 22 22 22 22 23 23 22 21 21 21 20 20 20
7 6 5 4 3 3 3 4 4 4 4 3 4 3 2 3 4 4 4 5 5 5 4 3 4 9 5 1 4 4 1 4 6 4 3 4 3 4 5 4 3 2 2 3 3 3 4 5 7 9 9 9 8 8 9 8 10 12 13 16 20 23 25 27 25 21 19 19 20 21 22 22 23 23 23 23 24 23 23 22 22 22 23 22 21
6 4 3 2 1 2 3 3 3 4 2 2 4 4 3 3 3 3 2 3 7 4 2 3 4 5 2 2 2 1 1 7 8 4 4 4 4 3 4 4 1 2 2 2 2 3 3 5 9 8 8 10 9 9 10 9 10 14 16 18 21 22 25 28 28 23 20 19 20 21 22 22 23 24 24 24 24 24 23 23 22 23 23 23 23
6 3 2 2 1 2 4 3 3 5 4 4 5 5 5 4 4 3 3 6 7 5 4 4 3 2 2 3 1 2 2 8 7 2 4 4 3 3 3 3 2 1 1 2 3 5 4 2 6 7 7 11 10 10 11 10 11 14 16 19 21 22 24 29 29 24 21 21 21 21 22 23 23 24 25 25 25 24 24 23 23 23 23 24 24
5 3 2 2 1 3 5 4 4 5 5 6 6 5 5 5 6 6 6 7 6 6 7 7 5 4 3 3 3 2 3 5 4 2 4 4 4 5 3 3 3 2 2 1 3 6 6 4 5 6 6 10 11 11 12 11 12 15 17 19 20 21 25 29 28 25 23 23 23 23 23 23 24 25 25 25 25 25 24 24 24 24 24 24 24
4 3 3 4 3 3 5 5 5 5 6 7 6 6 6 6 7 8 8 7 7 8 8 7 7 6 5 5 4 3 3 4 3 1 2 3 4 5 5 3 2 2 4 2 2 5 6 6 6 4 5 9 11 10 11 12 14 17 18 18 19 23 26 29 28 26 25 25 24 24 23 24 24 25 25 25 25 25 25 25 25 25 25 25 25
5 5 4 5 5 4 5 6 5 5 7 7 7 8 7 7 8 8 8 9 10 11 10 9 8 7 5 4 4 5 5 5 6 5 2 2 3 5 6 6 5 5 5 3 2 4 4 6 7 4 5 10 10 9 12 13 15 18 18 18 20 24 27 28 27 26 26 26 26 25 24 24 25 25 25 25 25 25 25 25 25 25 25 25 26
6 6 5 6 7 5 5 6 6 7 7 7 7 8 9 9 10 9 9 10 10 11 11 10 10 9 9 8 8 8 7 7 10 11 6 2 2 3 11 11 8 9 9 5 3 4 5 7 8 6 5 9 9 10 13 14 16 18 18 19 23 25 27 27 26 26 27 27 28 27 26 26 25 24 25 25 25 25 25 25 26 26 26 26 26
7 6 4 6 8 6 6 6 7 7 8 8 8 9 10 11 11 11 11 10 11 11 11 11 10 10 11 12 13 12 10 10 11 13 10 7 6 1 6 7 7 12 14 8 4 6 9 6 5 6 5 8 9 11 14 15 17 17 18 22 24 26 28 27 26 27 29 29 29 30 30 29 27 25 25 26 26 26 26 26 26 26 27 27 26
8 6 4 5 6 6 6 7 8 8 9 9 10 10 11 11 12 13 13 12 12 12 13 12 11 12 12 12 12 12 12 12 11 11 11 10 9 7 6 5 2 10 15 12 4 5 9 4 3 4 5 7 9 13 15 16 17 19 21 23 24 27 28 27 27 29 31 31 31 32 33 33 31 27 26 27 27 27 27 28 28 28 29 28 25
9 8 7 6 6 6 6 7 9 9 10 10 10 11 11 12 12 12 13 13 12 13 14 14 12 12 11 11 11 11 12 11 10 11 10 12 12 9 10 9 6 3 10 14 9 4 3 2 5 5 5 7 11 14 15 17 20 21 22 23 25 27 28 28 29 30 31 32 33 35 35 34 32 29 28 28 28 29 29 30 31 31 31 29 27
10 9 8 8 7 7 7 7 9 10 11 11 11 11 12 12 13 13 13 13 12 13 14 13 13 12 11 11 12 12 11 10 10 12 11 11 12 10 11 10 8 7 2 6 8 6 4 7 7 6 7 9 13 15 16 19 22 23 22 22 25 28 29 29 29 30 32 34 35 35 33 32 30 28 29 30 31 32 32 32 33 32 30 28 29
11 10 9 9 8 8 8 9 10 11 12 12 12 12 12 13 13 13 14 12 13 14 13 13 13 12 12 11 11 11 11 10 10 11 11 10 10 10 10 8 5 5 7 5 5 6 7 9 9 8 9 12 15 16 18 21 23 23 22 23 27 29 30 29 29 32 35 36 34 32 32 30 28 29 32 34 35 35 34 33 31 29 28 29 31
11 12 11 10 10 9 9 10 11 11 12 12 12 12 12 13 14 14 14 13 13 13 12 13 13 12 11 10 10 11 10 10 10 10 10 9 9 10 11 10 6 4 5 6 6 7 8 11 12 11 11 15 17 18 20 23 23 23 23 26 29 31 31 30 32 34 35 34 33 32 32 30 29 32 35 37 36 35 33 31 29 29 30 32 32
12 14 12 11 11 10 10 11 11 11 11 11 12 12 13 14 14 14 14 13 13 13 12 12 12 11 10 9 9 10 10 10 11 10 9 9 9 9 10 11 9 6 3 3 4 6 9 12 13 13 15 17 18 20 22 22 23 23 25 28 30 31 32 33 34 34 33 33 32 32 32 31 33 36 37 36 34 32 31 30 30 30 31 32 30
12 13 13 12 12 11 12 12 12 12 12 12 13 13 14 14 14 14 13 13 13 12 11 11 10 10 9 9 9 10 11 10 10 9 9 8 8 8 8 8 9 7 5 4 4 7 11 14 14 16 19 20 20 22 23 22 23 24 26 29 30 31 33 34 34 32 32 33 32 32 32 33 35 37 36 34 32 32 32 31 31 31 31 31 30
13 13 14 14 13 13 13 12 12 12 12 13 13 13 14 14 14 14 12 12 12 11 10 10 9 9 9 9 9 10 10 9 9 8 8 8 8 8 7 6 6 6 6 6 4 6 12 16 17 19 20 21 22 22 22 23 23 25 27 29 30 32 34 34 33 32 32 33 32 32 32 33 35 34 33 33 34 34 34 33 32 32 31 31 31
15 14 14 15 14 14 13 13 13 13 13 13 13 13 13 13 13 13 12 11 11 11 10 9 8 8 8 8 8 8 8 7 7 6 6 7 7 7 7 6 6 6 8 8 6 10 16 16 17 20 21 21 22 22 23 24 24 25 27 28 31 33 34 34 32 32 34 33 32 31 31 33 33 30 32 35 37 38 37 36 35 33 33 33 32
15 16 16 16 15 14 14 14 13 13 13 13 12 13 13 12 12 12 12 11 11 11 10 9 8 8 8 8 8 8 8 7 6 6 5 6 6 6 7 7 7 7 9 10 9 12 18 19 18 21 22 21 22 22 23 24 25 25 26 29 32 33 34 34 33 34 34 33 32 31 31 33 30 28 33 37 40 42 41 40 39 38 37 36 35
16 17 17 17 16 15 15 14 14 13 13 13 13 12 12 12 12 12 11 11 11 11 10 9 9 9 9 9 8 7 7 6 6 6 6 6 6 6 7 7 8 8 9 11 12 12 17 21 22 22 22 21 23 23 23 23 24 25 27 30 32 31 34 35 34 34 34 33 32 31 31 30 25 27 33 36 42 45 45 44 43 41 39 37 36
17 17 18 18 17 16 15 15 14 14 13 13 12 12 12 13 12 12 11 11 11 10 10 10 9 9 9 8 7 6 5 5 4 5 5 5 6 6 6 7 8 9 9 11 13 14 17 21 22 22 22 22 23 22 22 23 23 24 28 30 30 31 35 36 34 33 33 34 32 31 30 26 22 28 32 35 41 44 44 44 44 42 41 39 36
19 18 18 18 17 17 16 15 15 14 14 13 12 12 12 12 12 12 11 11 10 10 10 10 9 8 8 8 6 5 4 4 4 4 4 5 5 5 6 7 8 10 11 11 13 15 17 19 22 22 22 23 22 22 22 22 22 25 27 28 29 33 36 36 34 32 33 33 31 31 29 23 23 31 33 35 41 43 43 45 44 42 40 39 37
19 19 19 18 18 17 16 16 15 14 14 13 13 13 13 12 12 12 12 11 10 10 10 9 9 8 8 7 6 5 4 3 3 3 4 5 5 5 6 7 8 10 12 12 13 15 17 19 22 22 22 22 21 22 22 22 25 27 26 26 29 33 35 35 34 32 33 33 32 31 28 24 27 33 34 37 41 42 44 48 45 40 38 37 35
20 20 20 19 18 18 17 16 15 14 14 13 13 13 13 12 12 12 12 11 10 10 10 9 8 8 8 7 6 5 4 3 3 3 3 3 4 5 6 7 8 10 11 13 14 15 17 19 20 22 22 21 22 22 21 22 26 27 26 27 30 33 34 35 35 33 32 33 32 31 28 27 30 33 35 37 39 40 45 49 44 37 35 34 32
21 21 20 19 19 18 17 17 16 15 15 14 13 13 12 12 12 12 12 11 10 10 10 9 8 8 7 6 5 5 4 4 3 1 0 1 1 3 5 6 7 9 11 13 14 15 17 18 19 21 21 21 21 21 21 24 25 24 25 28 30 32 33 35 36 34 33 33 31 30 31 29 30 33 34 35 37 40 45 46 40 35 32 32 33
21 21 21 20 20 19 18 18 17 16 16 15 14 13 13 13 12 12 11 11 11 10 10 9 8 8 7 6 6 5 4 4 3 1 2 2 2 3 4 5 6 8 10 11 13 15 16 17 18 20 20 21 21 21 23 25 22 22 26 28 29 32 34 35 37 34 33 32 31 33 34 30 30 33 33 33 37 42 44 41 35 32 32 34 37
22 21 21 21 21 20 20 20 19 19 18 18 17 16 16 16 15 13 12 12 11 11 10 9 8 8 7 7 6 4 3 3 4 3 5 5 5 5 6 6 7 8 9 10 11 13 15 16 17 19 20 20 20 21 23 23 22 24 29 29 29 31 33 35 36 34 31 30 32 36 35 31 31 32 31 34 38 41 43 39 34 32 35 37 38
22 22 21 21 21 22 22 23 22 22 21 20 20 19 17 16 16 14 13 12 11 11 10 10 9 8 8 8 6 2 1 3 3 2 4 4 5 6 7 8 8 9 9 9 10 11 13 15 16 18 18 18 20 22 22 23 24 26 29 29 29 31 33 31 31 33 31 30 33 36 35 31 30 30 32 35 37 40 43 40 36 36 38 38 38
22 23 24 23 22 24 26 25 23 23 21 20 20 19 18 17 16 15 14 13 12 12 11 10 10 9 9 9 6 2 2 2 1 2 4 5 7 7 8 8 9 11 12 11 12 12 12 14 16 18 18 19 21 23 23 24 25 27 29 29 29 30 30 26 25 29 33 34 34 34 33 32 30 29 33 35 36 40 43 41 39 40 40 38 37
24 25 25 23 22 26 28 25 22 22 21 19 20 20 19 19 18 15 14 13 12 12 11 10 10 10 9 8 6 3 2 2 2 4 5 6 7 9 9 9 10 12 13 14 15 14 13 14 17 18 18 19 22 24 25 25 27 28 29 29 29 29 30 28 25 28 36 39 35 31 32 32 29 29 33 34 35 41 45 44 42 41 40 38 37
25 25 25 22 21 25 26 22 20 20 20 19 20 20 20 20 19 16 14 13 13 12 11 11 11 12 12 9 6 5 5 5 3 4 5 5 6 8 8 9 12 12 12 14 15 15 14 15 17 19 20 21 23 26 27 27 28 30 28 28 30 30 30 31 30 33 38 38 34 30 30 31 30 29 33 35 36 42 47 46 43 41 40 40 38
26 25 23 21 22 23 22 20 19 19 18 19 21 21 21 20 19 16 12 12 13 12 11 11 10 11 11 10 8 7 8 7 6 7 7 7 7 6 6 9 11 12 13 14 13 12 13 14 17 20 23 24 25 27 29 29 30 30 30 31 32 32 32 32 33 36 36 34 34 29 25 28 31 30 34 37 37 42 48 46 42 41 41 41 39
25 24 22 22 23 22 19 18 19 18 18 19 20 22 23 21 21 17 10 9 13 12 10 10 10 9 9 8 7 7 7 8 9 9 9 8 6 3 6 9 10 11 12 12 9 9 12 15 17 21 23 24 25 27 29 30 30 30 31 31 32 31 31 32 33 35 32 33 35 26 20 28 33 29 32 38 37 43 48 44 42 43 42 41 38
24 24 22 22 22 21 19 18 19 18 18 20 20 21 24 24 23 19 10 7 10 12 10 9 9 9 9 9 8 7 6 8 10 10 9 8 4 4 7 9 9 10 10 9 9 12 15 16 17 19 21 22 24 26 28 28 28 28 28 28 29 29 29 28 28 31 32 34 35 27 21 29 33 27 30 37 40 44 46 43 43 45 42 40 37
23 23 22 21 21 20 20 19 18 17 19 21 20 20 23 26 26 21 12 6 8 10 9 9 9 10 10 10 10 8 8 10 10 9 9 7 4 4 7 8 9 9 9 9 13 15 14 14 16 18 20 22 23 24 26 26 26 27 26 26 28 30 28 22 20 27 33 33 33 29 24 28 32 29 27 32 39 43 43 43 47 46 41 40 40
23 22 22 21 20 20 20 20 17 17 19 21 19 18 22 26 27 22 12 7 7 9 10 10 10 11 11 12 12 9 8 10 9 9 8 6 3 4 6 8 9 9 10 13 15 14 13 15 19 19 19 21 22 23 24 25 25 27 27 27 29 29 26 22 21 27 30 31 33 32 26 28 34 33 27 26 32 39 41 43 48 47 43 43 44
23 22 22 21 20 20 20 19 16 16 20 21 19 18 21 25 27 22 13 9 9 10 11 11 11 11 13 14 15 13 11 9 8 8 7 5 3 4 6 7 8 10 12 13 15 15 17 21 21 20 19 20 20 21 23 24 26 27 28 29 30 28 25 26 27 24 19 23 34 36 29 29 33 32 27 21 19 29 42 47 47 46 46 47 46
Wind_Direction
206 186 198 203 176 172 201 231 235 238 238 227 231 240 232 207 225 212 178 228 249 192 241 265 195 150 97 95 93 108 123 128 131 125 94 72 69 67 56 41 34 32 41 51 43 53 55 53 55 50 43 39 35 24 13 9 7 10 9 9 16 13 10 11 11 8 3 1 359 359 359 355 352 352 353 354 352 343 325 310 313 316 311 309 310
192 179 179 196 173 164 184 211 214 258 259 223 211 228 227 203 200 203 174 182 214 179 257 273 197 138 96 91 90 92 106 124 139 138 112 90 80 76 66 50 40 32 29 31 28 32 33 30 35 42 41 38 34 24 17 12 5 1 354 352 0 4 360 354 354 354 352 353 353 353 355 356 355 353 353 356 358 359 350 332 322 318 312 309 305
175 200 188 205 204 177 183 192 180 198 233 235 234 200 194 184 159 170 154 131 147 132 56 44 47 74 88 83 84 86 84 93 115 132 123 100 86 77 65 52 45 37 29 25 24 26 27 28 28 30 32 30 27 20 16 10 4 1 356 353 353 357 359 354 353 348 345 351 352 349 349 352 354 354 355 358 359 3 4 358 348 334 326 324 317
179 184 179 188 192 180 182 187 184 182 188 222 294 267 213 171 139 160 151 132 134 100 81 74 54 59 75 78 76 79 78 78 86 93 98 100 84 71 62 51 42 35 28 23 21 19 20 25 25 25 25 25 28 19 8 3 8 11 9 5 358 0 4 2 1 354 350 355 352 347 345 346 349 352 352 353 354 357 358 0 1 351 342 341 341
180 178 178 176 176 175 175 176 179 174 150 143 273 250 228 184 145 155 144 136 129 105 93 92 82 71 70 74 75 74 75 73 73 77 82 88 79 62 54 46 40 31 23 18 17 15 16 21 21 20 19 22 30 27 18 13 15 14 12 11 8 8 8 5 3 358 354 355 353 348 348 349 349 349 349 347 347 352 350 348 354 354 349 346 349
174 177 173 159 166 160 149 155 158 156 136 128 220 241 231 158 124 134 138 135 127 118 115 102 86 80 76 74 72 72 76 73 72 77 76 81 82 74 64 56 47 36 25 16 15 17 20 24 25 22 19 21 26 29 29 26 24 21 17 16 13 11 11 8 6 4 1 358 357 352 351 352 352 350 349 347 343 345 346 342 339 343 349 352 350
172 174 158 141 154 148 136 144 156 167 137 125 249 263 206 70 96 113 109 127 135 124 119 109 82 74 78 81 74 71 76 72 72 77 75 71 69 68 67 63 58 50 36 20 15 18 20 25 25 21 19 20 24 27 30 31 29 25 22 20 18 15 14 13 11 11 8 5 4 359 355 356 355 353 351 351 347 343 341 334 328 327 335 343 345
171 168 154 139 147 145 135 131 142 165 124 116 261 262 91 87 98 111 118 131 145 120 107 105 94 80 78 82 74 71 75 70 69 73 76 73 61 53 48 49 51 51 48 30 19 17 17 23 22 17 13 13 19 26 28 30 31 27 22 21 21 17 15 16 14 13 12 9 8 2 358 359 357 355 354 354 351 349 345 334 326 323 324 328 329
167 160 155 145 145 147 135 123 116 100 105 284 271 257 257 110 103 120 172 143 40 119 120 108 104 93 81 82 73 70 75 73 74 74 75 74 66 57 48 55 53 46 47 39 33 26 17 19 18 11 5 4 9 18 25 27 29 29 23 20 20 16 13 13 12 10 10 7 5 3 359 359 359 356 355 356 353 352 351 342 335 330 327 325 322
156 150 147 147 149 144 126 119 113 96 173 225 249 233 248 150 119 355 171 110 34 97 121 113 106 97 84 83 76 75 79 76 80 80 76 72 68 61 50 59 64 54 45 35 43 46 32 24 17 6 359 358 1 6 17 23 23 25 24 19 17 14 9 8 7 5 4 3 2 0 359 358 359 357 355 354 351 352 351 345 342 339 335 330 325
152 142 130 143 153 141 121 116 121 146 194 237 245 178 194 209 176 153 101 52 67 103 120 117 109 100 91 88 80 79 83 81 80 77 77 76 73 73 59 52 56 58 54 37 36 41 42 36 24 12 359 356 357 358 5 13 13 18 22 17 14 12 7 4 2 359 357 357 357 355 355 354 354 354 353 351 348 348 348 345 344 343 341 336 330
150 147 132 148 153 124 123 119 156 211 224 244 268 147 192 223 288 178 154 110 112 119 129 126 113 101 96 98 91 85 85 83 81 77 80 83 85 93 84 63 49 48 50 43 30 25 26 27 29 37 14 359 357 357 359 0 2 11 19 16 14 10 7 3 359 357 355 353 352 351 350 348 348 350 349 348 346 345 344 343 341 340 340 339 334
134 137 139 150 145 124 142 161 216 230 230 244 272 294 197 178 357 179 140 128 126 131 143 139 122 108 101 106 104 92 85 81 84 85 83 85 88 88 82 73 60 41 41 43 36 23 14 10 12 24 33 14 358 355 354 343 347 1 10 11 12 9 6 3 358 356 353 351 350 349 346 343 344 345 344 342 341 341 341 339 338 336 335 336 335
126 127 133 144 151 152 167 181 203 214 203 227 250 255 232 184 160 154 138 142 130 137 151 145 133 138 136 127 115 100 95 92 92 95 89 87 87 77 64 64 65 48 44 39 33 31 13 4 2 2 17 23 359 353 350 332 336 350 356 358 5 6 3 0 356 355 352 350 348 345 342 340 341 341 338 337 336 336 336 335 334 333 331 331 331
125 124 129 136 151 152 158 177 196 215 217 227 217 225 248 182 158 152 151 160 135 133 151 148 149 159 156 148 140 128 114 117 115 102 98 106 110 108 94 73 66 63 59 29 359 357 345 345 346 346 1 12 359 352 348 330 329 341 341 342 352 357 358 357 353 351 351 349 345 341 338 338 339 337 334 333 333 333 333 331 331 330 329 327 327
122 127 127 123 142 150 151 170 181 200 234 229 179 193 205 138 148 149 146 161 147 131 145 148 140 149 155 212 175 161 153 155 142 123 131 127 111 126 127 98 59 50 57 28 3 344 322 322 329 329 343 357 353 342 339 327 320 329 328 328 339 346 349 351 349 347 347 343 339 338 337 337 335 333 332 331 330 330 330 328 327 326 327 326 324
128 131 122 101 143 173 159 184 185 167 183 163 150 162 161 146 148 152 133 133 139 125 114 144 133 130 89 359 156 164 47 149 146 146 174 145 94 100 113 106 73 25 33 30 358 337 305 299 323 327 328 340 342 331 331 329 317 321 324 323 330 337 340 343 344 344 341 337 335 335 334 334 333 332 331 330 329 329 327 326 324 323 323 323 321
130 129 128 99 42 103 119 139 154 137 141 148 144 136 130 128 126 127 90 96 121 120 107 121 124 113 53 37 75 5 77 151 155 150 175 158 129 128 104 112 137 132 8 13 326 314 314 298 321 322 316 325 327 323 327 329 319 318 319 318 323 331 333 336 340 341 339 335 333 332 331 332 332 332 331 330 329 328 327 324 322 321 319 319 318
127 128 146 123 106 107 110 122 134 135 138 134 133 131 124 119 112 114 110 100 106 120 118 115 105 85 69 75 89 53 84 143 149 118 158 174 177 168 148 128 109 128 220 308 313 306 324 343 331 311 309 321 318 318 325 324 317 315 317 316 319 325 328 332 337 341 341 339 335 330 329 330 330 330 330 329 329 327 326 324 322 320 318 317 315
130 136 138 126 118 111 114 121 123 130 132 124 122 124 126 126 115 112 121 110 94 105 109 102 99 91 88 88 87 86 80 83 68 62 149 162 181 180 175 177 148 149 174 189 266 290 307 323 336 310 293 317 317 315 320 318 315 315 317 318 318 321 325 330 335 337 338 336 332 327 324 325 326 327 328 328 328 326 325 324 323 322 319 317 315
139 152 161 144 124 113 119 121 118 128 129 125 127 123 119 122 120 117 120 111 98 99 96 87 87 79 73 74 77 85 79 62 38 20 35 160 171 174 178 190 214 213 191 188 253 303 281 267 302 306 286 313 317 313 315 313 313 316 318 318 316 320 326 330 331 331 331 330 329 325 320 320 321 324 326 327 326 325 324 323 322 321 320 319 316
150 170 174 144 127 119 124 125 121 124 123 120 127 125 118 113 113 115 119 115 105 101 95 90 87 74 63 62 60 55 53 49 31 19 7 341 17 160 177 185 199 206 213 217 234 294 271 251 279 285 291 314 314 313 314 311 314 318 319 316 315 321 326 327 327 327 327 327 327 326 322 319 319 320 322 322 322 321 320 320 321 320 319 318 315
165 179 160 120 119 123 127 130 122 119 120 117 116 115 113 110 108 108 110 108 103 99 93 90 87 79 70 66 62 54 50 46 31 21 13 4 356 328 180 194 198 189 204 222 227 255 250 248 283 280 295 319 318 317 316 315 319 320 316 314 316 322 325 325 325 325 325 325 326 326 326 323 319 316 318 318 318 317 316 316 317 316 315 317 315
166 174 160 121 127 132 128 130 127 124 124 119 114 112 110 109 106 105 104 103 103 101 94 88 83 79 75 69 67 65 58 49 39 31 21 13 1 342 356 353 263 182 189 204 223 247 232 228 304 296 306 319 319 320 319 319 320 318 315 316 319 322 324 326 325 323 323 324 325 325 324 323 319 315 314 315 315 314 313 312 311 311 312 315 314
167 169 168 157 153 145 138 139 134 129 127 123 118 116 114 112 110 108 107 105 105 104 96 90 87 84 81 76 72 71 65 56 48 44 32 26 24 359 347 348 319 243 186 189 191 185 168 21 338 316 317 319 322 323 320 319 318 318 318 317 321 323 324 324 322 321 322 323 323 323 322 321 319 317 316 315 315 313 312 311 311 312 312 314 312
171 171 170 169 164 157 150 143 137 132 130 125 118 116 116 113 112 110 106 104 105 104 98 94 92 88 85 81 75 71 67 63 60 55 45 36 32 10 348 342 315 307 294 180 166 141 62 13 346 328 330 328 329 327 322 321 320 321 321 319 322 324 323 322 322 323 323 322 322 322 322 321 319 320 322 322 320 317 315 315 315 314 311 310 309
176 177 172 170 167 163 155 141 139 138 132 127 122 121 121 117 115 112 105 105 106 104 99 95 92 87 85 83 80 77 69 65 66 61 54 45 33 18 12 359 319 326 353 10 73 65 21 5 345 332 337 333 331 328 323 322 322 323 323 322 323 324 324 324 325 324 322 322 323 325 326 325 323 325 327 326 322 319 318 317 315 312 308 307 306
177 175 169 171 169 164 157 145 141 139 132 130 126 124 124 119 115 110 103 101 101 100 99 95 91 88 86 84 82 79 73 71 70 62 56 52 37 27 34 28 3 352 350 357 27 22 6 358 339 328 334 330 327 327 324 323 324 325 325 324 324 325 326 326 325 324 323 324 327 328 328 327 328 329 328 324 322 321 321 317 312 308 308 309 308
171 169 167 172 169 163 158 148 142 139 134 132 128 125 123 117 113 111 108 106 102 99 97 95 93 91 88 90 90 80 74 72 67 59 51 49 40 33 39 35 21 12 354 345 347 340 346 347 332 323 327 327 326 326 324 324 327 327 326 325 326 327 327 326 326 326 326 326 327 328 328 328 329 329 326 324 324 324 322 318 314 312 311 311 308
167 167 167 169 166 163 158 149 144 140 136 133 128 125 122 118 116 114 111 109 107 103 101 101 99 99 96 94 90 80 73 67 59 52 45 43 42 35 34 34 30 25 1 331 311 322 336 335 325 323 324 324 325 324 324 327 327 326 326 326 327 327 326 326 327 327 327 327 327 327 326 327 328 327 326 327 328 327 326 323 319 315 313 310 306
170 165 167 168 166 162 157 151 148 142 138 134 129 128 126 122 119 115 112 111 110 107 106 106 103 103 100 91 84 75 66 61 55 48 40 38 38 34 30 23 24 22 352 332 302 306 323 324 320 322 322 321 323 324 326 326 326 327 326 326 326 326 326 326 327 328 327 326 326 326 325 326 327 326 328 332 333 331 330 326 322 318 315 312 308
173 169 169 171 167 164 159 154 150 144 140 136 131 131 126 121 120 118 117 116 113 111 110 110 111 110 103 94 89 79 70 64 54 47 38 31 28 27 23 10 6 5 345 335 312 299 311 317 317 320 321 321 323 326 325 324 326 327 326 326 326 326 325 326 327 327 326 326 326 326 325 325 325 328 335 339 337 335 332 329 325 322 320 317 312
171 172 174 174 169 165 162 157 152 146 143 139 135 132 126 124 126 123 123 122 119 120 120 119 120 116 107 97 91 85 79 74 59 50 41 28 26 19 13 5 355 352 345 337 324 308 311 316 319 320 322 324 324 325 324 324 327 328 326 327 326 325 325 325 326 327 326 326 327 327 326 324 326 337 344 344 341 337 334 332 328 325 322 319 314
170 173 174 173 170 167 162 157 154 149 145 142 138 135 132 132 130 128 130 130 128 129 130 129 126 119 113 103 95 88 80 72 59 51 40 30 28 19 8 2 347 341 342 336 327 314 310 315 320 321 323 325 323 323 325 325 326 328 328 327 326 325 325 325 326 326 326 326 327 327 325 324 332 345 347 346 343 338 333 330 328 326 323 320 316
169 173 173 170 168 166 162 158 153 150 149 146 142 141 140 138 135 135 137 137 137 139 138 136 131 122 115 107 100 96 88 81 66 52 43 34 28 17 2 354 344 338 339 335 327 315 308 311 317 318 320 322 321 323 325 325 326 329 329 326 325 325 324 324 326 326 326 327 326 326 325 324 334 342 341 342 343 339 334 330 326 324 323 321 318
167 171 171 168 167 165 162 158 154 153 151 147 146 147 145 143 143 141 141 142 143 145 144 140 136 130 123 117 113 108 101 98 79 54 48 37 25 17 359 347 343 339 336 332 324 315 309 308 311 314 317 319 321 324 325 325 327 329 327 325 324 325 324 325 326 327 327 326 325 324 323 321 329 336 336 338 340 339 337 334 326 320 321 322 320
167 170 169 168 168 165 161 159 155 154 152 150 150 151 151 152 150 147 146 148 148 148 148 143 139 138 131 126 124 119 115 107 85 55 41 33 20 9 353 343 342 338 333 331 325 319 313 308 309 314 319 321 323 325 327 329 330 327 325 326 325 325 325 325 326 327 327 326 324 323 320 316 323 330 331 333 336 337 338 337 330 322 321 322 322
168 169 169 168 167 164 162 160 156 154 153 154 155 155 157 157 154 154 152 151 153 150 147 146 145 143 138 135 130 123 118 102 81 57 38 40 28 6 350 342 341 338 334 334 330 323 318 314 314 318 321 324 325 326 328 332 330 326 326 327 326 326 326 325 325 327 327 325 323 323 320 315 318 325 329 332 336 338 338 337 333 325 322 323 322
169 168 169 169 167 165 163 159 157 156 153 154 156 157 160 159 157 159 157 154 155 152 151 152 149 145 144 140 134 131 131 122 110 100 49 91 65 6 345 338 342 341 339 337 332 328 326 323 321 321 322 324 326 326 328 330 328 327 330 330 326 326 327 325 324 325 326 324 322 324 321 314 315 324 330 334 337 338 338 338 334 329 325 322 319
168 169 170 169 167 165 163 159 157 155 152 155 160 161 163 164 163 163 162 160 158 157 158 155 152 152 148 145 150 157 166 174 169 130 73 69 53 12 347 345 352 350 345 339 334 332 330 326 323 322 322 323 324 326 328 331 332 332 333 331 324 322 325 324 323 324 325 324 322 323 322 315 316 325 331 335 338 340 340 339 336 333 330 325 320
169 171 171 169 167 165 161 160 159 159 160 165 170 172 172 170 168 168 170 170 167 164 163 159 158 158 153 161 176 182 189 185 158 97 62 47 26 14 5 2 0 352 343 335 330 329 327 324 324 324 323 321 324 329 331 333 334 331 330 328 322 320 321 320 321 324 325 323 321 322 321 317 320 326 331 335 338 341 341 339 334 330 329 327 324
170 173 172 168 168 166 162 162 163 164 169 173 174 175 176 172 169 171 175 176 174 172 170 169 170 169 172 185 194 193 191 183 159 82 33 8 354 354 354 350 341 329 322 318 315 319 320 320 323 325 322 320 324 329 329 328 329 327 326 324 320 320 321 319 320 323 326 325 322 320 320 321 324 327 331 334 337 341 342 340 335 329 326 325 324
173 174 170 168 170 170 168 167 169 171 174 178 177 174 176 176 172 173 177 179 177 178 179 178 179 181 186 196 210 248 263 232 248 321 335 331 327 331 333 330 321 308 302 300 301 308 313 315 321 324 319 316 322 325 324 323 324 323 322 321 319 319 321 320 319 321 326 328 324 319 320 325 328 329 330 333 336 339 341 340 337 333 329 325 323
173 171 168 170 174 174 171 170 174 177 177 179 179 176 179 180 175 174 177 179 180 183 184 184 189 191 189 193 208 238 249 256 296 310 313 318 320 319 318 320 316 302 292 289 290 296 302 305 313 319 317 316 319 319 318 317 318 318 318 318 318 319 318 317 314 315 322 327 325 320 319 324 328 330 329 331 335 338 339 338 336 335 333 329 326
170 169 170 173 172 170 171 172 177 180 182 183 184 184 184 182 177 173 175 182 186 185 186 193 197 193 188 188 194 209 227 242 258 265 273 293 304 304 305 314 319 312 301 294 287 285 290 296 301 308 314 316 313 311 313 314 312 312 313 315 318 319 316 315 313 314 320 326 326 321 317 321 328 329 326 328 334 337 337 336 334 334 334 332 329
173 173 174 173 168 166 171 177 180 182 188 190 190 192 191 184 178 175 175 183 188 186 191 198 195 182 180 189 202 208 218 230 231 234 258 286 291 289 307 320 322 323 317 309 297 287 292 299 300 303 310 311 307 307 313 314 310 309 310 311 316 318 316 315 315 316 321 327 328 321 312 319 328 328 323 326 333 336 336 336 334 333 333 332 330
176 176 177 177 174 172 176 182 182 185 192 194 192 195 197 189 183 183 176 171 182 191 195 193 186 178 181 193 207 205 203 215 227 240 270 297 298 311 341 333 324 323 321 319 321 319 313 311 308 307 308 309 307 309 314 316 313 313 314 315 320 321 319 318 319 320 323 329 329 320 307 318 327 325 321 326 332 335 336 336 335 334 334 334 332
171 174 177 179 179 180 182 183 184 189 196 195 194 198 200 193 188 188 178 159 180 193 193 187 184 187 195 203 206 205 211 226 239 252 274 294 307 339 342 332 323 325 328 331 332 328 324 322 319 312 308 310 316 320 323 324 324 325 327 328 330 329 323 321 321 322 325 329 330 322 308 316 325 324 321 328 334 335 335 337 337 336 336 336 334
167 169 172 175 178 182 184 184 188 195 196 194 198 202 200 195 192 189 183 174 187 190 187 191 194 194 201 205 200 204 223 232 241 255 271 288 317 342 333 326 326 330 329 320 318 323 329 327 320 313 312 321 330 333 335 337 338 340 339 334 332 330 325 323 323 324 325 327 330 327 315 316 325 325 323 330 335 335 335 338 339 339 340 340 337
172 173 174 175 178 183 186 187 193 197 192 190 195 200 198 196 193 189 187 192 197 195 195 199 200 201 205 203 196 198 213 223 234 250 264 281 315 338 330 326 329 330 320 313 320 332 335 326 321 321 327 336 340 339 341 343 344 344 340 333 331 330 327 326 325 323 323 325 332 332 322 320 326 327 327 332 334 335 337 339 341 343 344 342 340
177 178 177 176 179 185 188 189 193 195 190 188 192 197 197 195 192 188 188 199 202 202 204 201 200 207 214 211 207 207 211 218 231 245 253 264 301 330 332 331 326 318 310 314 326 333 327 323 326 333 340 343 343 343 345 345 343 342 340 338 338 336 332 329 326 325 322 324 332 333 327 324 326 328 332 339 335 334 338 341 342 344 346 345 342
Height
839 840 840 840 840 841 840 842 844 845 845 843 843 843 842 842 842 840 839 840 841 841 841 842 842 841 842 842 842 842 842 842 842 841 842 842 842 843 843 843 843 843 843 842 842 842 842 842 841 841 840 840 839 839 838 838 837 837 836 836 835 835 834 833 832 831 830 829 828 827 827 826 825 824 823 822 821 820 819 819 818 818 817 817 817
838 839 839 838 838 837 837 839 843 845 844 842 842 842 842 842 841 840 841 842 841 842 842 842 842 842 841 841 842 842 842 842 841 841 842 842 842 843 843 843 843 843 843 843 843 842 842 842 842 842 841 841 840 840 839 838 838 837 837 836 835 835 834 833 832 831 830 829 828 827 827 826 825 824 824 823 822 820 819 818 817 817 817 816 816
838 839 839 839 838 838 838 839 842 845 845 843 843 843 841 841 840 840 841 841 841 842 842 842 841 841 841 842 842 842 842 842 842 841 841 842 842 843 843 843 843 843 843 843 843 843 843 842 842 842 841 841 840 840 839 838 838 837 837 836 835 834 834 833 832 831 830 829 828 827 826 826 825 824 823 823 822 821 819 818 817 816 816 815 815
838 840 840 840 839 840 841 841 842 844 845 845 846 846 843 841 840 840 840 841 841 841 841 841 841 841 841 841 841 841 842 842 842 842 842 842 843 844 843 844 844 844 844 843 843 843 843 843 842 842 841 841 840 840 839 838 838 837 837 836 835 834 833 833 832 831 830 829 828 827 826 825 825 824 823 822 821 821 820 818 817 816 815 815 814
837 839 840 840 840 841 841 841 841 841 841 843 846 849 846 842 840 840 840 840 840 840 841 841 841 841 841 841 841 841 842 842 842 843 843 844 844 844 844 844 844 844 844 844 844 843 843 843 842 842 841 841 840 840 839 838 838 837 836 835 835 834 833 832 831 831 830 829 828 826 826 825 824 823 822 822 821 820 819 818 818 817 816 815 814
835 837 838 839 840 840 840 839 839 840 840 840 844 846 844 841 840 840 839 840 840 840 840 840 841 840 840 841 841 841 842 842 843 843 844 844 845 845 845 845 845 844 844 844 844 844 843 843 842 842 841 841 840 840 839 839 838 837 836 835 835 834 833 832 831 830 829 828 827 826 825 824 823 822 822 821 820 820 819 818 817 816 816 815 814
834 836 836 837 838 838 839 838 838 838 838 839 842 843 842 841 840 839 839 839 839 839 839 839 840 840 840 841 841 841 841 842 842 843 843 844 844 845 845 846 846 845 845 844 844 844 844 843 843 842 841 841 841 840 840 839 838 837 837 836 835 834 833 832 831 830 829 828 827 826 825 824 823 822 821 820 819 819 818 817 816 816 815 814 813
833 834 835 836 837 837 838 838 838 837 836 838 841 841 841 840 839 838 838 838 838 838 838 838 839 840 840 841 841 841 842 842 842 843 844 844 844 844 845 845 845 846 845 845 844 844 844 844 843 843 842 842 841 841 840 840 839 838 837 836 835 834 833 832 831 830 829 828 827 826 825 824 822 821 820 819 819 818 817 816 816 815 814 813 812
832 833 833 834 836 837 837 838 838 838 837 839 840 840 839 839 838 838 837 837 837 837 837 838 839 839 840 841 842 842 842 843 843 844 844 844 845 845 845 846 846 846 846 846 845 845 845 844 844 843 843 842 842 841 841 840 840 839 838 837 836 835 833 832 831 830 829 828 827 826 825 823 822 821 820 819 818 817 817 816 815 814 813 812 811
831 831 832 833 835 836 837 837 838 838 839 840 840 839 839 838 837 837 837 837 836 836 836 837 838 839 840 841 842 842 843 843 844 844 845 845 846 846 846 846 847 847 846 846 846 846 845 845 845 844 844 843 842 842 841 841 840 839 839 837 836 835 834 833 832 831 830 829 828 826 825 823 822 821 820 819 818 817 816 815 814 813 812 811 810
830 831 832 833 835 836 837 837 837 838 839 839 839 838 838 837 837 836 837 836 836 836 835 836 837 838 840 841 842 843 843 844 844 845 845 846 847 847 847 847 847 847 847 847 846 846 846 846 846 845 845 844 843 842 841 841 840 840 839 837 836 835 834 833 832 831 830 829 828 826 825 823 822 821 820 819 818 817 816 815 814 812 812 810 809
831 832 833 834 835 835 835 835 836 837 838 838 837 837 836 836 836 836 836 836 836 836 835 835 837 839 840 842 843 844 844 845 845 846 846 847 847 847 847 847 847 847 848 848 847 847 847 846 846 846 845 845 844 843 842 841 841 840 839 838 836 835 834 833 832 831 830 828 827 826 825 823 822 820 819 818 817 816 815 814 813 812 811 810 808
833 834 836 837 837 836 836 836 837 837 837 837 837 836 836 836 835 835 835 835 836 836 835 835 837 839 841 842 843 844 845 845 846 846 847 847 847 847 847 848 848 848 848 848 848 848 847 847 846 846 846 845 845 844 843 842 841 840 839 838 837 835 834 833 832 830 829 828 827 826 824 823 821 820 819 818 816 815 814 813 812 811 810 809 808
833 835 836 837 838 837 837 837 837 837 837 837 837 836 836 835 835 835 834 835 835 836 836 836 837 838 840 842 844 845 845 846 847 847 847 848 848 848 848 848 848 849 849 849 849 849 848 847 847 846 846 845 845 845 844 843 841 840 839 837 836 835 834 833 831 830 829 827 826 825 824 822 821 819 818 817 816 815 813 812 811 810 809 808 807
832 834 835 836 837 837 837 837 837 836 836 837 836 835 835 834 834 834 834 834 835 836 836 836 836 837 839 841 843 845 847 847 847 848 848 848 848 848 848 848 849 849 849 849 849 849 848 847 847 846 846 845 845 844 844 843 842 840 839 837 836 835 834 833 831 830 828 827 826 825 823 821 820 819 817 816 815 814 812 811 810 809 808 807 806
830 832 833 834 835 835 835 835 835 835 835 835 835 835 834 834 834 834 834 834 834 835 835 835 836 837 838 839 840 842 846 847 847 848 848 848 848 848 848 848 849 849 849 849 849 849 848 847 847 846 845 845 845 844 843 843 842 840 839 837 836 835 834 832 831 829 828 826 825 824 822 821 819 818 817 815 814 813 812 811 809 808 807 806 805
829 831 831 832 832 832 833 833 833 834 834 834 834 834 834 834 834 834 834 833 833 834 835 836 836 836 838 838 839 841 843 844 846 848 849 848 848 848 848 848 849 849 849 849 849 848 848 847 847 846 845 845 845 844 843 842 841 840 838 837 836 835 833 832 830 829 827 826 825 823 822 820 819 817 816 814 813 812 811 809 809 807 806 805 804
828 829 830 831 831 831 831 832 832 833 833 833 834 834 834 834 834 834 833 833 834 834 835 836 836 837 838 839 840 841 841 843 845 848 849 848 848 848 848 848 848 849 849 849 849 848 848 847 847 846 846 845 844 843 842 842 841 840 838 837 835 834 833 831 830 828 827 825 824 822 821 820 819 817 815 814 812 811 810 808 807 806 805 803 802
828 828 829 830 830 830 831 831 832 832 832 833 833 833 833 833 833 833 833 833 834 835 835 836 836 838 839 839 840 840 841 842 843 845 848 849 848 848 848 848 848 849 849 849 849 848 848 847 846 846 846 845 844 843 842 841 841 839 838 837 835 834 832 831 829 827 826 824 823 822 821 819 818 816 815 813 811 810 808 807 806 805 803 802 801
827 828 828 829 829 830 830 831 831 832 832 832 832 832 832 832 832 832 833 833 834 835 835 836 837 838 839 840 840 840 840 841 841 842 844 847 848 848 848 848 848 848 848 848 848 848 848 847 846 846 846 845 844 843 842 841 840 839 838 836 834 833 832 830 828 826 825 823 822 821 820 818 817 815 814 812 811 809 807 806 804 803 802 800 799
826 828 828 828 829 829 830 830 831 831 832 832 832 832 832 832 832 832 833 834 834 835 836 837 838 839 840 840 840 840 840 840 841 841 841 844 846 847 847 847 847 848 847 848 848 847 847 847 846 845 845 844 843 842 842 841 840 838 837 835 834 833 831 829 827 825 823 821 820 819 818 817 815 814 812 811 809 808 806 805 803 802 800 799 797
826 827 828 828 828 829 829 830 831 831 831 831 832 832 832 832 832 833 834 834 835 835 836 837 838 839 840 840 840 841 841 841 841 841 841 842 843 844 844 845 846 847 847 846 846 846 846 845 844 844 844 844 843 842 841 840 839 837 836 835 833 832 830 828 826 824 821 820 818 817 815 814 813 812 811 809 808 806 805 803 802 800 799 797 795
825 826 827 827 827 828 829 830 831 831 831 832 832 832 832 832 833 833 834 835 836 836 837 838 839 840 840 840 841 842 842 843 843 843 843 843 843 843 842 843 844 844 845 845 845 845 844 844 844 844 844 844 843 842 840 839 838 837 835 834 832 830 829 826 824 822 819 818 816 815 813 812 811 810 809 808 806 805 803 801 800 798 797 795 793
825 826 826 827 827 828 830 830 831 831 831 832 832 832 833 833 834 834 835 835 836 837 837 838 839 840 841 842 842 843 843 844 845 845 845 845 845 844 843 842 842 842 843 844 844 844 843 843 844 844 843 843 842 841 840 838 837 836 835 833 831 829 827 825 822 820 818 816 814 813 811 810 809 808 807 806 804 803 801 799 797 795 793 792 790
825 826 826 827 828 829 830 830 830 831 831 832 833 833 833 833 834 835 835 836 837 837 838 839 841 842 842 843 843 844 845 846 846 846 846 846 846 846 845 843 843 842 842 842 843 843 843 844 844 843 843 842 841 840 839 838 836 835 833 831 829 827 825 823 821 818 816 814 813 811 809 808 806 805 804 803 802 800 798 796 794 792 790 788 787
824 825 826 827 828 829 830 830 830 831 832 832 833 833 834 834 835 835 836 837 837 838 839 840 842 842 843 844 845 845 846 847 847 847 847 848 848 848 847 845 843 842 841 842 842 842 843 844 844 843 842 841 841 840 838 837 835 833 832 830 828 826 824 822 819 817 815 813 811 810 808 806 805 803 802 800 799 797 794 792 790 788 786 785 784
824 825 826 827 828 829 830 830 831 832 832 833 833 834 834 834 835 836 837 838 838 839 841 842 843 843 844 845 846 847 847 848 848 848 849 850 850 850 849 848 846 843 842 842 842 842 843 843 843 843 842 841 840 839 837 836 834 832 830 829 827 824 822 820 818 816 813 811 810 808 806 804 803 801 799 797 795 793 791 789 787 785 784 783 781
823 824 826 827 828 829 830 831 832 832 833 833 834 834 834 835 836 837 838 839 839 840 842 843 844 844 846 847 847 848 848 848 849 849 850 851 851 851 850 850 849 847 845 844 843 843 843 843 843 842 842 841 839 838 837 835 833 831 829 827 825 822 820 818 816 814 811 809 808 806 804 802 801 799 797 795 793 791 789 787 785 783 782 780 778
823 823 825 827 828 829 831 831 832 833 833 834 834 835 835 836 836 837 838 839 840 842 843 844 845 846 847 848 848 848 848 849 849 850 851 851 852 851 851 850 851 850 850 849 846 845 844 844 844 842 841 840 839 837 835 833 832 830 828 826 823 821 818 817 815 812 810 808 806 804 802 800 799 797 795 793 791 788 786 784 782 781 778 776 774
822 823 825 827 828 830 831 832 833 833 834 834 835 835 835 836 837 838 839 840 841 843 844 845 846 847 848 849 849 848 849 849 850 851 851 852 852 852 852 851 852 852 852 852 850 846 845 845 844 842 841 839 838 836 834 832 831 829 827 824 822 819 817 815 813 810 808 806 805 803 801 799 797 795 792 790 788 786 783 781 779 777 775 773 771
821 823 825 827 828 830 831 832 833 833 834 834 835 835 836 837 838 839 840 841 842 844 845 846 847 848 849 849 849 849 849 850 851 852 852 852 852 852 852 852 853 853 853 853 851 848 846 845 843 842 841 839 837 835 833 831 830 828 825 823 821 818 816 813 811 809 807 805 803 801 799 797 795 793 791 788 786 783 781 778 776 774 772 769 767
820 822 825 827 828 830 831 832 833 833 834 835 835 836 837 838 839 840 841 842 844 845 846 847 848 849 849 849 849 849 850 851 851 852 852 852 852 852 852 853 853 853 853 852 851 848 846 846 844 842 840 838 836 834 832 830 829 827 825 822 820 817 814 811 810 808 805 803 802 800 798 795 793 791 789 786 784 781 778 776 773 771 768 766 763
820 822 825 827 828 830 831 832 833 834 834 835 836 837 838 839 840 841 842 843 844 845 847 848 849 849 849 849 850 850 850 851 852 852 852 852 852 852 853 853 853 853 852 852 851 848 845 844 843 841 839 838 835 833 832 829 828 827 824 822 819 816 812 810 808 806 804 801 799 798 796 793 791 789 787 784 782 780 776 773 770 767 764 762 759
820 822 825 826 828 830 831 832 832 834 835 835 837 837 838 839 840 842 843 844 845 846 847 848 849 849 849 849 850 850 851 852 852 852 852 852 852 852 852 853 853 853 852 851 850 848 845 843 842 840 839 837 835 833 831 829 827 826 823 821 818 815 812 809 807 804 801 799 797 796 793 791 789 787 784 782 780 778 774 770 767 764 761 758 756
820 822 824 826 828 829 830 831 832 833 835 836 837 838 839 840 841 842 843 844 846 847 848 848 848 849 849 850 850 851 852 852 852 852 852 851 851 852 852 853 853 852 852 851 850 849 846 843 841 840 838 837 834 832 831 830 827 825 823 820 817 814 811 807 805 803 800 797 795 793 791 788 786 784 781 779 777 775 771 767 763 760 757 755 752
819 822 823 825 827 828 829 831 832 833 834 836 837 838 839 841 841 842 843 845 846 847 848 848 849 849 849 850 851 851 852 852 852 852 851 851 851 851 852 852 852 852 851 851 850 849 847 844 842 840 838 836 834 832 831 829 827 825 823 820 816 813 809 806 804 801 798 796 793 791 789 786 784 781 778 776 773 770 767 763 759 755 753 751 748
819 821 822 824 826 827 829 830 831 833 834 835 837 838 839 840 841 842 843 845 847 848 848 849 849 849 850 850 851 851 852 852 852 852 851 851 851 852 852 852 852 851 851 850 850 849 847 845 842 840 838 836 834 832 831 828 826 824 822 819 816 812 808 804 802 800 797 794 791 789 787 784 781 778 776 773 770 767 763 759 755 752 749 747 744
817 819 821 823 825 826 828 829 830 832 834 835 837 838 839 840 841 842 843 845 846 847 848 849 849 849 850 851 851 851 852 852 852 852 851 851 852 852 852 852 851 851 850 850 849 848 847 845 842 839 837 836 834 832 830 829 826 822 819 817 815 812 807 802 800 799 796 793 790 787 785 782 779 776 773 770 767 764 761 756 752 748 746 744 742
816 818 820 822 823 825 826 828 829 831 833 835 837 838 840 841 842 843 844 845 846 847 848 849 849 850 850 851 851 851 852 852 851 851 851 851 852 852 852 851 851 850 849 849 848 847 846 844 842 840 837 836 834 832 830 828 826 822 819 815 812 809 806 802 797 796 794 791 788 785 783 780 777 774 771 768 765 762 758 754 749 746 744 741 739
815 817 819 820 822 823 825 826 828 830 832 834 836 838 839 841 842 843 844 845 846 847 848 849 849 850 850 851 851 851 851 851 851 851 851 851 851 852 851 851 850 850 849 849 848 847 846 844 842 840 837 835 833 831 829 827 824 822 820 817 812 808 805 801 797 794 792 789 785 782 780 777 774 771 769 766 763 759 755 751 747 745 742 739 736
814 816 817 819 820 822 823 825 826 828 830 831 833 836 837 838 840 842 844 845 846 847 848 848 849 850 850 850 850 850 851 851 851 851 851 851 852 851 851 850 850 849 849 849 848 847 846 844 842 840 837 835 833 831 828 826 824 821 819 817 813 808 804 800 796 794 791 787 783 780 776 774 771 768 766 763 760 757 752 748 745 741 738 735 732
813 814 816 818 819 820 821 822 823 826 829 831 832 834 836 838 839 841 843 845 846 846 847 848 849 849 850 850 850 850 851 851 851 851 851 851 851 851 851 850 850 849 849 848 847 846 845 843 841 840 837 835 833 831 829 827 825 822 818 815 812 807 803 798 793 791 790 787 782 777 774 772 769 766 763 761 757 754 750 745 742 739 735 732 728
811 813 814 816 817 818 819 820 823 825 828 831 832 833 835 837 838 840 842 844 845 846 847 847 848 849 849 849 849 850 850 850 851 851 851 851 850 850 850 849 849 849 848 847 846 845 845 843 841 839 837 835 833 831 829 826 824 821 818 815 811 806 802 797 791 787 786 785 781 775 772 770 768 764 761 758 755 751 747 743 740 736 732 728 724
809 810 812 814 816 817 817 820 823 825 827 830 831 833 835 836 837 839 841 843 844 845 846 846 847 848 848 848 849 849 849 850 850 850 850 850 850 849 849 848 848 848 847 846 845 844 844 842 840 839 837 836 833 830 828 825 823 820 817 814 811 807 803 798 793 787 784 783 780 774 770 768 766 762 758 756 752 748 744 740 736 733 728 724 720
807 810 812 813 814 816 817 820 823 825 827 829 831 832 834 835 837 838 840 842 843 844 845 845 846 847 847 848 848 849 849 849 850 850 849 849 849 848 848 847 847 846 846 845 844 843 843 841 840 838 837 835 833 829 827 824 821 818 815 813 810 807 803 798 794 789 784 782 779 774 768 766 764 761 756 753 750 746 742 737 733 729 724 720 716
806 808 810 812 814 816 818 820 823 824 826 828 830 832 834 835 837 838 840 841 842 843 844 844 845 845 846 847 847 848 849 849 849 849 849 848 848 847 847 846 846 845 844 844 843 843 842 841 839 838 836 835 832 828 825 823 821 818 814 811 808 806 802 798 794 789 785 782 779 774 767 764 763 759 753 750 747 743 739 734 730 725 721 717 713
805 807 809 811 813 816 818 820 822 823 825 827 829 831 833 835 836 837 838 839 840 842 842 843 843 844 845 846 847 847 848 848 848 848 848 848 847 846 846 845 845 845 844 843 842 842 841 840 839 838 835 833 830 826 824 822 820 817 815 812 809 805 802 797 793 788 785 782 779 774 767 762 761 757 751 747 744 740 736 731 727 722 718 713 709
804 806 809 811 813 815 817 819 821 822 823 825 828 830 832 834 836 837 838 838 839 840 841 841 842 843 844 845 846 847 847 847 847 847 847 847 846 846 845 845 845 844 843 843 842 842 841 840 839 837 833 830 828 825 823 820 818 816 814 811 809 805 801 796 791 786 782 780 777 773 767 761 758 756 750 745 741 737 732 729 724 719 715 710 705
803 805 807 809 812 814 816 818 820 821 822 824 826 828 830 832 834 836 837 838 839 839 840 841 842 842 843 844 845 846 846 845 846 846 846 846 846 845 845 844 844 843 843 842 841 841 840 839 837 834 831 829 827 825 823 820 818 816 813 810 807 804 800 796 791 786 781 778 775 772 767 761 757 754 749 746 741 735 730 726 721 716 711 707 702
803 805 807 808 811 813 815 817 818 819 821 823 825 827 829 831 833 835 836 837 838 839 839 840 841 841 842 843 844 844 844 844 845 845 845 845 845 844 844 844 843 843 842 841 840 839 838 837 835 832 829 828 827 825 823 821 819 816 814 810 807 804 800 796 792 786 781 777 774 771 766 760 756 752 748 744 740 735 731 725 719 714 709 703 697
801 804 806 807 809 812 814 816 817 818 820 822 824 826 828 830 832 834 835 837 837 838 838 839 840 840 840 841 842 843 842 843 843 844 844 844 844 844 843 843 842 842 841 840 839 837 836 834 832 830 828 828 827 825 823 821 818 816 814 810 807 804 801 797 792 787 781 776 773 771 766 760 756 752 748 743 736 730 728 725 719 713 707 701 695